Chongqing, China

5:07 PM CST on November 18, 2019 (GMT +0800)
Jiangbei

Weather History for ZUCK - September, 2019

Change the Weather History Date:

Saturday, September 7, 2019

  Actual Average Record
Temperature  
Mean Temperature 83 °F -  
Max Temperature 91 °F - - ()
Min Temperature 75 °F - - ()
Cooling Degree Days 18    
Growing Degree Days 33 (Base 50)    
Moisture  
Dew Point 73 °F    
Average Humidity 76    
Maximum Humidity 100    
Minimum Humidity 48    
Precipitation  
Precipitation 0.16 in - - ()
Sea Level Pressure  
Sea Level Pressure 29.63 in    
Wind  
Wind Speed 4 mph ()    
Max Wind Speed 13 mph    
Max Gust Speed -    
Visibility 3.8 miles    
Events Fog , Rain , Thunderstorm    
T = Trace of Precipitation, MM = Missing Value Source: Averaged Metar Reports

Daily Weather History Graph

Daily Weather History Graph

Search for Another Location

Airport or City:

Astronomy

Sep. 07, 2019 Rise Set
Actual Time 6:33 AM CST 7:09 PM CST
Civil Twilight 6:09 AM CST 7:33 PM CST
Nautical Twilight 5:41 AM CST 8:01 PM CST
Astronomical Twilight 5:12 AM CST 8:30 PM CST
Moon 2:33 PM CST (9/7) 12:19 AM CST (9/7)
Length of Visible Light 13h 24m
Length of Day
12h 35m
First Quarter, 61% of the Moon is Illuminated
Sep 7
First Quarter
Sep 14
Full
Sep 22
Last Quarter
Sep 29
New
Oct 6
First Quarter

Hourly Weather History & Observations

Time (CST) Temp. Heat Index Dew Point Humidity Pressure Visibility Wind Dir Wind Speed Gust Speed Precip Events Conditions
12:00 AM 78.8 °F - 73.4 °F 83% 29.68 in - Variable 2.2 mph - N/A   Clear
1:00 AM 78.8 °F - 71.6 °F 78% 29.68 in - NNE 6.7 mph - N/A   Clear
2:00 AM 79 °F - 73 °F 78% 29.60 in 2 mi NW 2.2 mph - -   Mist
2:00 AM 77.0 °F - 69.8 °F 78% 29.68 in - North 6.7 mph - N/A   Clear
3:00 AM 77.0 °F - 71.6 °F 83% 29.65 in 4.3 mi NNE 6.7 mph - N/A   Unknown
4:00 AM 77.0 °F - 71.6 °F 83% 29.65 in 4.3 mi Variable 2.2 mph - N/A   Unknown
5:00 AM 78 °F - 73 °F 80% 29.56 in 2 mi NW 2.2 mph - - Rain Light Rain
5:00 AM 75.2 °F - 71.6 °F 89% 29.65 in 4.3 mi North 4.5 mph - N/A Rain Rain Showers
6:00 AM 75.2 °F - 71.6 °F 89% 29.65 in 3.7 mi North 4.5 mph - N/A   Unknown
7:00 AM 75.2 °F - 71.6 °F 89% 29.65 in 2.8 mi NNE 2.2 mph - N/A   Mist
8:00 AM 79 °F - 73 °F 78% 29.60 in 2 mi NNW 2.2 mph - -   Mist
8:00 AM 77.0 °F - 71.6 °F 83% 29.68 in 3.1 mi NNE 4.5 mph - N/A   Mist
9:00 AM 78.8 °F - 73.4 °F 83% 29.68 in 3.1 mi NE 4.5 mph - N/A   Mist
10:00 AM 84.2 °F 90.9 °F 73.4 °F 70% 29.68 in 3.1 mi Variable 2.2 mph - N/A   Mist
11:00 AM 87 °F - 73 °F 55% 29.59 in 3 mi NE 2.2 mph - -   Mist
11:00 AM 86.0 °F 93.4 °F 73.4 °F 66% 29.68 in 3.1 mi Variable 2.2 mph - N/A   Haze
12:00 PM 89.6 °F 96.2 °F 71.6 °F 55% 29.65 in 4.3 mi Variable 2.2 mph - N/A   Unknown
2:00 PM 91 °F - 74 °F 48%  in - NW 4.5 mph - -   Mist
2:00 PM 87.8 °F 95.6 °F 73.4 °F 62% 29.62 in 5.0 mi WNW 6.7 mph - N/A   Unknown
3:00 PM 87.8 °F 95.6 °F 73.4 °F 62% 29.59 in 5.0 mi NW 6.7 mph - N/A   Partly Cloudy
4:00 PM 86.0 °F 95.1 °F 75.2 °F 70% 29.59 in 5.0 mi WNW 11.2 mph - N/A   Partly Cloudy
5:00 PM 88 °F - 73 °F 53% 29.51 in 4 mi North 6.7 mph - -   Mist
5:00 PM 87.8 °F 99.7 °F 77.0 °F 70% 29.59 in 5.0 mi NW 6.7 mph - N/A   Unknown
6:00 PM 86.0 °F 95.1 °F 75.2 °F 70% 29.59 in 5.0 mi WNW 6.7 mph - N/A   Unknown
7:00 PM 84.2 °F 92.3 °F 75.2 °F 74% 29.59 in 4.3 mi NNW 6.7 mph - N/A   Unknown
8:00 PM 84 °F - 75 °F 67% 29.57 in 3 mi NNW 4.5 mph - - Rain Light Rain
8:00 PM 75.2 °F - 75.2 °F 100% 29.65 in 1.6 mi ENE 13.4 mph - N/A Rain , Thunderstorm Thunderstorms and Rain
9:00 PM 77.0 °F - 77.0 °F 100% 29.65 in 3.7 mi North 6.7 mph - N/A Rain Light Rain Showers
10:00 PM 78.8 °F - 77.0 °F 94% 29.68 in 3.7 mi ESE 6.7 mph - N/A Fog Patches of Fog
11:00 PM 81 °F - 74 °F 74% 29.61 in 7 mi WNW 4.5 mph - - Rain Light Rain
11:00 PM 78.8 °F - 75.2 °F 89% 29.68 in 5.0 mi ENE 8.9 mph - N/A Rain Light Rain Showers